Flag for U.S.A. Weather past 2 weeks in Austin, Texas, U.S.A.

Now
41 °F

Fog.


Feels Like: 39 °F
Forecast: 46 / 68 °F
Wind: 3 mph from Northeast

Location: Camp Mabry / Austin City

Current Time: Mar 2, 2015 at 11:36:39 PM

Latest Report: Mar 2, 2015 at 10:51 PM


Visibility: 1 mi

Pressure: 30.21 "Hg

Humidity: 100%

Dew point: 41 °F

Location of AustinLocation

Historic Weather in Austin — Graph

°F

Austin temperature yesterday

Maximum temperature yesterday: 43 °F (at 2:51 PM)
Minimum temperature yesterday: 35 °F (at 1:51 AM)
Average temperature yesterday: 39 °F

Past Weeks' High & Low Weather Summary

 TemperatureHumidityPressure
High77 °F (Feb 21, 3:51 PM)100% (Mar 1, 4:51 AM)30.53 "Hg (Mar 1, 4:51 AM)
Low30 °F (Feb 23, 8:51 PM)23% (Feb 18, 1:51 PM)29.76 "Hg (Feb 20, 4:51 PM)
Average45 °F76%30.19 "Hg
* Reported Feb 15 9:51 PM — Mar 2 9:51 PM, Austin, Weather by CustomWeather, © 2015

Note: Actual official high and low records may vary slightly from our data, if they occured in-between our weather recording intervals... More about our weather records

Advertising

Austin weather history for previous 24 hours

 ConditionsComfort  
Time TempWeatherWind HumidityBarometerVisibility
9:51 PM
Mon, Mar 2
41 °FFog.No wind100%30.21 "Hg1 mi
9:01 PM42 °FFog.3 mph96%30.19 "Hg2 mi
7:51 PM42 °FFog.No wind100%30.21 "Hg1 mi
6:51 PM43 °FFog.5 mph97%30.20 "Hg2 mi
5:51 PM43 °FFog.3 mph93%30.20 "Hg2 mi
4:51 PM43 °FFog.3 mph97%30.23 "Hg2 mi
3:51 PM44 °FFog.No wind93%30.23 "Hg4 mi
2:51 PM44 °FFog.5 mph89%30.26 "Hg6 mi
1:51 PM44 °FLow clouds.6 mph89%30.27 "Hg7 mi
12:51 PM43 °FLow clouds.3 mph89%30.32 "Hg7 mi
11:51 AM42 °FLow clouds.6 mph89%30.35 "Hg10 mi
10:51 AM41 °FLow clouds.5 mph93%30.37 "Hg10 mi
9:51 AM40 °FLow clouds.6 mph93%30.38 "Hg9 mi
8:51 AM39 °FFog.6 mph96%30.38 "Hg4 mi
7:51 AM39 °FLow clouds.3 mph93%30.36 "Hg9 mi
6:51 AM38 °FLow clouds.6 mph97%30.36 "Hg10 mi
5:51 AM38 °FLow clouds.5 mph97%30.34 "Hg7 mi
4:51 AM39 °FLow clouds.5 mph93%30.34 "Hg10 mi
3:51 AM39 °FLow clouds.5 mph96%30.33 "Hg10 mi
2:51 AM39 °FLight rain. Fog.3 mph96%30.34 "Hg5 mi
1:51 AM39 °FFog.5 mph96%30.36 "Hg6 mi
12:51 AM39 °FFog.6 mph96%30.35 "Hg4 mi
11:51 PM
Sun, Mar 1
39 °FFog.7 mph96%30.36 "Hg2 mi
Weather by CustomWeather, © 2015

See weather overviewHow to use our weather pages